Location: Lane
(33.5226°N, 79.8788°W)
Time: 18:52:24
(UTC+00:00)

SR - Pass Details

Date: 03 October 2022
Orbit: 577 x 874 km, 66.7° (Epoch: 08 December)

Event Time Altitude Azimuth Distance (km) Brightness Sun altitude
Rises 10:13:55 0° 347° (NNW) 3,300 ? -13.6°
Reaches altitude 10° 10:17:01 10° 3° (N) 2,311 ? -13.0°
Maximum altitude 10:20:57 21° 52° (NE) 1,613 ? -12.2°
Drops below altitude 10° 10:24:38 10° 101° (E) 2,152 ? -11.4°
Sets 10:27:23 0° 117° (ESE) 3,008 ? -10.8°
